User: anonymous   Login
Location: Hobi?a Gr?di?te
(45.4833°N, 22.7833°E)
Time: 01:49:46
(UTC+00:00)
Language:

Cosmos 1140 Rocket - Orbit

View from above orbital plane
View from above orbital plane
View from above satellite
View from above satellite

Ground track
Ground track

The orbit data is extracted from the following two-line orbital elements,

1 11574U 79089B   23152.38500034  .00000336  00000-0  11224-3 0  9992
2 11574  74.0675 163.0816 0016941 236.4051 123.5488 14.41155036290211
Epoch (UTC): 01 June 2023 09:14:24
Eccentricity: 0.0016941
inclination: 74.0675°
perigee height: 742 km
apogee height: 767 km
right ascension of ascending node: 163.0816°
argument of perigee: 236.4051°
revolutions per day: 14.41155036
mean anomaly at epoch: 123.5488°
orbit number at epoch: 29021

The dashed part of the orbit path shows where the satellite is in the earth's shadow,  

DLR